#timestamp,LO_Frequency,Hit,StdDev 
1661036415.5,286046999.3,N
1661036435.3,286046999.3,N
1661036455.2,286046999.3,N
1661036475.9,286046999.1,N
1661036495.7,286046996.5,Y
1661036515.6,286046998.1,P
1661036535.4,286047001.1,P
1661036555.3,286046998.3,N
1661036575.1,286046998.9,N
1661036576.0,286046998.9,N
1661036595.8,286046998.1,N
1661036615.7,286047001.2,N
1661036635.5,286046998.3,N
1661036655.3,286046999.3,N
1661036675.2,286046998.8,N
1661036695.0,286046998.8,N
1661036695.9,286046998.8,N
1661036715.8,286046999.0,N
1661036735.6,286046998.3,N
1661036755.4,286046998.7,N
1661036775.3,286046998.7,N
1661036795.1,286047001.2,N
1661036815.9,286047001.1,N
1661036835.7,286047000.9,N
1661036855.5,286047001.0,N
1661036875.4,286047002.8,N
1661036895.2,286046999.8,N
1661036915.0,286046999.7,N
1661036915.9,286046999.7,N
1661036935.8,286047002.1,N
1661036955.6,286047002.1,N
1661036975.5,286047002.5,N
1661036995.3,286047002.5,N
1661037015.1,286047001.6,N
1661037035.9,286047001.6,N
1661037055.7,286047004.0,N
1661037075.6,286047003.9,N
1661037095.4,286047003.2,N
1661037115.2,286047004.2,N
1661037135.1,286047003.3,N
1661037136.0,286047003.3,N
1661037155.8,286047003.6,N
1661037175.6,286047003.1,N
1661037195.5,286047003.8,N
1661037215.3,286047003.9,N
1661037235.2,286047003.7,N
1661037255.2,286047003.4,N
1661037275.0,286047003.0,N
1661037275.9,286047003.0,N
1661037295.7,286047006.0,Y
1661037315.6,286047002.8,P
1661037335.4,286047002.7,P
1661037355.3,286047002.0,P
1661037375.1,286047002.1,Y
1661037395.8,286046998.5,P
1661037415.7,286046999.0,N
1661037435.5,286046998.3,N
1661037455.4,286046998.6,N
1661037475.2,286046999.0,N
1661037495.0,286046998.6,N
1661037495.9,286046998.6,N
1661037515.8,286046998.3,N
1661037535.6,286046998.1,N
1661037555.5,286046998.5,N
1661037575.3,286047000.4,N
1661037595.1,286046999.9,N
1661037615.9,286046999.9,N
1661037635.7,286047002.7,N
1661037655.5,286047002.7,N
1661037675.4,286047001.9,N
1661037695.2,286047002.1,N
1661037715.1,286046999.8,N
1661037716.0,286046999.8,N
1661037735.8,286047002.8,N
1661037755.6,286047002.1,N
1661037775.5,286047002.4,N
1661037795.3,286047002.3,N
1661037815.1,286047002.8,N
1661037835.9,286047002.6,N
1661037855.7,286047002.8,N
1661037875.6,286047000.1,N
1661037895.4,286047001.9,N
1661037915.2,286047002.8,N
1661037935.1,286047001.5,N
1661037936.0,286047001.5,N
1661037955.8,286047002.6,N
1661037975.7,286047001.5,N
1661037995.5,286047002.2,N
1661038015.3,286046999.8,N
1661038035.2,286047002.1,N
1661038055.0,286047001.9,N
1661038055.9,286047001.9,N
1661038075.7,286047002.4,N
1661038095.6,286047001.5,N
1661038115.4,286047001.7,N
1661038135.3,286047001.4,N
1661038155.1,286047004.2,Y
1661038156.0,286047004.2,P
1661038175.8,286047002.2,N
1661038195.7,286047002.6,N
1661038215.5,286046999.7,N
1661038235.4,286047002.1,N
1661038255.2,286047002.4,N
1661038275.0,286047002.3,N
1661038275.9,286047002.3,N
1661038295.8,286047002.8,N
1661038315.6,286046999.7,N
1661038335.4,286046999.9,N
1661038355.3,286047002.3,N
1661038375.1,286046999.7,N
1661038395.9,286047002.4,N
1661038415.7,286047002.8,N
1661038435.5,286047001.7,N
1661038455.4,286047001.9,N
1661038475.2,286047001.8,N
1661038495.0,286047002.1,N
1661038495.9,286047002.1,N
1661038515.8,286047001.5,N
1661038535.6,286047002.3,N
1661038555.5,286047001.6,N
1661038575.3,286047001.8,N
1661038595.1,286047002.1,N
1661038615.9,286047001.9,N
1661038635.7,286047002.5,N
1661038655.5,286047002.2,N
1661038675.4,286047002.2,N
1661038695.2,286047001.6,N
1661038715.1,286047002.5,N
1661038716.0,286047002.5,N
1661038735.8,286047002.8,Y
1661038755.6,286047000.8,P
1661038775.5,286047000.9,N
1661038795.3,286047001.2,N
1661038815.1,286046998.9,N
1661038835.9,286046998.3,N
1661038855.7,286046998.2,N
1661038875.6,286047001.0,N
1661038895.4,286047001.1,N
1661038915.2,286047000.6,N
1661038935.1,286046998.5,N
1661038936.0,286046998.5,N
1661038955.8,286047001.0,N
1661038975.6,286047000.4,N
1661038995.5,286047001.2,N
1661039015.3,286046998.1,N
1661039035.2,286046998.5,N
1661039055.9,286047000.9,N
1661039075.7,286047000.9,N
1661039095.6,286046998.2,N
1661039115.4,286047001.1,N
1661039135.2,286046998.1,N
1661039155.1,286047001.2,N
1661039156.0,286047001.2,N
1661039175.8,286046998.2,N
1661039195.7,286046998.1,N
1661039215.5,286046998.2,N
1661039235.3,286046998.2,N
1661039255.2,286046998.4,N
1661039275.0,286046998.4,N
1661039275.9,286046998.4,N
1661039295.8,286047001.0,N
1661039315.6,286047000.6,N
1661039335.4,286047001.2,N
1661039355.3,286047001.2,N
1661039375.1,286047000.9,N
1661039395.8,286046999.7,N
1661039415.7,286046999.9,N
1661039435.5,286047000.1,N
1661039455.4,286047000.2,N
1661039475.2,286046999.8,N
1661039495.0,286047000.5,N
1661039495.9,286047000.5,N
1661039515.8,286047000.8,N
1661039535.6,286047001.2,N
1661039555.4,286047001.2,N
1661039575.3,286046998.2,N
1661039595.1,286046998.2,N
1661039615.9,286047000.6,N
1661039635.7,286047001.2,N
1661039655.5,286047000.8,N
1661039675.4,286046998.2,N
1661039695.2,286047000.8,N
1661039715.0,286047000.7,N
1661039716.0,286047000.7,N
1661039735.8,286047000.5,N
1661039755.6,286046998.2,N
1661039775.5,286047000.8,N
1661039795.3,286047001.0,N
1661039815.2,286046998.2,N
1661039835.9,286046999.0,N
1661039855.7,286046998.4,N
1661039875.6,286046998.5,N
1661039895.4,286047001.1,N
1661039915.2,286046998.5,N
1661039935.3,286046998.7,N
1661039955.1,286047001.2,N
1661039975.9,286047001.1,N
1661039995.7,286047001.0,N
